SWA1788 KDEN-KBNA

Flight info

Callsign SWA1788
Flight time 1h 58m
Altitude 39000
Route EPKEE7 DUUZE ICT ARG LOPPY CHSNE2
Aircraft B736/M-SDE2E3FGHIRWXY/LB1

Departure

Time 2026-05-06 13:12
Airport Denver International Airport (KDEN)

Arrival

Time 2026-05-06 15:10
Airport Nashville International Airport (KBNA)
Time Latitude Longitude Altitude Speed Heading
2026-05-06 12:45 39.86250 -104.67159 5384 ft 0 kts
2026-05-06 12:59 39.86236 -104.67159 5385 ft 2 kts
2026-05-06 13:00 39.86220 -104.67162 5385 ft 2 kts 13°
2026-05-06 13:00 39.86205 -104.67169 5384 ft 2 kts 34°
2026-05-06 13:00 39.86194 -104.67185 5385 ft 2 kts 75°
2026-05-06 13:00 39.86193 -104.67201 5385 ft 1 kts 91°
2026-05-06 13:01 39.86193 -104.67203 5385 ft 0 kts 91°
2026-05-06 13:05 39.86191 -104.67163 5383 ft 9 kts 91°
2026-05-06 13:05 39.86187 -104.67051 5385 ft 14 kts 96°
2026-05-06 13:06 39.86184 -104.66912 5385 ft 15 kts 91°
2026-05-06 13:06 39.86182 -104.66776 5385 ft 15 kts 91°
2026-05-06 13:06 39.86181 -104.66647 5385 ft 12 kts 90°
2026-05-06 13:06 39.86181 -104.66548 5385 ft 11 kts 89°
2026-05-06 13:07 39.86238 -104.66510 5385 ft 10 kts
2026-05-06 13:07 39.86309 -104.66509 5384 ft 10 kts
2026-05-06 13:07 39.86384 -104.66507 5385 ft 12 kts
2026-05-06 13:07 39.86469 -104.66504 5385 ft 13 kts 12°
2026-05-06 13:08 39.86502 -104.66407 5384 ft 14 kts 89°
2026-05-06 13:08 39.86502 -104.66273 5385 ft 15 kts 80°
2026-05-06 13:08 39.86589 -104.66226 5383 ft 16 kts
2026-05-06 13:08 39.86682 -104.66225 5379 ft 22 kts
2026-05-06 13:09 39.86896 -104.66224 5372 ft 23 kts
2026-05-06 13:09 39.87054 -104.66220 5369 ft 22 kts
2026-05-06 13:09 39.87206 -104.66220 5364 ft 22 kts 359°
2026-05-06 13:09 39.87355 -104.66217 5363 ft 21 kts
2026-05-06 13:10 39.87503 -104.66213 5362 ft 21 kts
2026-05-06 13:10 39.87641 -104.66213 5360 ft 16 kts
2026-05-06 13:10 39.87736 -104.66202 5360 ft 11 kts 26°
2026-05-06 13:10 39.87755 -104.66108 5357 ft 12 kts 90°
2026-05-06 13:11 39.87755 -104.65981 5355 ft 26 kts 91°
2026-05-06 13:11 39.87750 -104.65423 5353 ft 95 kts 90°
2026-05-06 13:11 39.87743 -104.64333 5335 ft 148 kts 91°
2026-05-06 13:11 39.87742 -104.62880 5687 ft 165 kts 89°
2026-05-06 13:12 39.87725 -104.61383 6537 ft 165 kts 90°
2026-05-06 13:12 39.87706 -104.59908 7289 ft 164 kts 92°
2026-05-06 13:12 39.87551 -104.58899 7644 ft 176 kts 109°
2026-05-06 13:12 39.86893 -104.56817 8214 ft 203 kts 112°
2026-05-06 13:13 39.86280 -104.55035 8463 ft 229 kts 113°
2026-05-06 13:13 39.85818 -104.53707 8605 ft 247 kts 113°
2026-05-06 13:13 39.85089 -104.51588 8916 ft 270 kts 112°
2026-05-06 13:13 39.84317 -104.49311 9657 ft 275 kts 112°
2026-05-06 13:14 39.83550 -104.47017 10015 ft 278 kts 112°
2026-05-06 13:14 39.82776 -104.44678 10021 ft 282 kts 112°
2026-05-06 13:14 39.82007 -104.42351 10037 ft 279 kts 112°
2026-05-06 13:14 39.81243 -104.40035 10028 ft 278 kts 112°
2026-05-06 13:15 39.80464 -104.37725 10039 ft 282 kts 112°
2026-05-06 13:15 39.79634 -104.35329 10378 ft 300 kts 113°
2026-05-06 13:15 39.78763 -104.32832 11228 ft 306 kts 114°
2026-05-06 13:15 39.77879 -104.30297 12215 ft 311 kts 115°
2026-05-06 13:16 39.76975 -104.27705 13071 ft 319 kts 115°
2026-05-06 13:16 39.76046 -104.25040 13961 ft 326 kts 115°
2026-05-06 13:16 39.75103 -104.22331 14720 ft 334 kts 115°
2026-05-06 13:16 39.74141 -104.19571 15443 ft 343 kts 115°
2026-05-06 13:17 39.73146 -104.16720 16188 ft 351 kts 116°
2026-05-06 13:17 39.72123 -104.13800 16941 ft 359 kts 116°
2026-05-06 13:17 39.71067 -104.10811 17685 ft 367 kts 116°
2026-05-06 13:17 39.69989 -104.07770 18438 ft 375 kts 116°
2026-05-06 13:18 39.68892 -104.04674 19141 ft 381 kts 117°
2026-05-06 13:18 39.67781 -104.01540 19933 ft 384 kts 117°
2026-05-06 13:18 39.66659 -103.98377 20712 ft 388 kts 117°
2026-05-06 13:18 39.65520 -103.95179 21453 ft 393 kts 118°
2026-05-06 13:19 39.64283 -103.91987 22202 ft 397 kts 122°
2026-05-06 13:19 39.62961 -103.88824 22901 ft 403 kts 123°
2026-05-06 13:19 39.61607 -103.85597 23584 ft 409 kts 123°
2026-05-06 13:19 39.60247 -103.82317 24207 ft 415 kts 123°
2026-05-06 13:20 39.58913 -103.78987 24886 ft 419 kts 120°
2026-05-06 13:20 39.57800 -103.75517 25576 ft 424 kts 115°
2026-05-06 13:20 39.56805 -103.71936 26225 ft 428 kts 114°
2026-05-06 13:20 39.55833 -103.68265 26855 ft 433 kts 114°
2026-05-06 13:21 39.54850 -103.64564 27464 ft 437 kts 114°
2026-05-06 13:21 39.53842 -103.60837 28084 ft 440 kts 115°
2026-05-06 13:21 39.52805 -103.57087 28682 ft 443 kts 115°
2026-05-06 13:21 39.51749 -103.53325 29274 ft 447 kts 116°
2026-05-06 13:22 39.50671 -103.49521 29854 ft 451 kts 116°
2026-05-06 13:22 39.49585 -103.45708 30389 ft 454 kts 116°
2026-05-06 13:22 39.48487 -103.41864 30820 ft 457 kts 116°
2026-05-06 13:22 39.47377 -103.37983 31186 ft 461 kts 116°
2026-05-06 13:23 39.46262 -103.34087 31651 ft 463 kts 116°
2026-05-06 13:23 39.45138 -103.30160 32041 ft 467 kts 116°
2026-05-06 13:23 39.44000 -103.26194 32378 ft 472 kts 116°
2026-05-06 13:23 39.42853 -103.22203 32702 ft 476 kts 116°
2026-05-06 13:24 39.41694 -103.18174 33063 ft 479 kts 116°
2026-05-06 13:24 39.40531 -103.14131 33499 ft 480 kts 116°
2026-05-06 13:24 39.39365 -103.10086 33903 ft 482 kts 116°
2026-05-06 13:24 39.38189 -103.06014 34275 ft 483 kts 116°
2026-05-06 13:25 39.37011 -103.01937 34631 ft 483 kts 116°
2026-05-06 13:25 39.35835 -102.97877 35019 ft 483 kts 116°
2026-05-06 13:25 39.34633 -102.93823 35370 ft 481 kts 119°
2026-05-06 13:25 39.33242 -102.89908 35706 ft 479 kts 123°
2026-05-06 13:26 39.31726 -102.86097 36029 ft 478 kts 124°
2026-05-06 13:26 39.30159 -102.82301 36317 ft 478 kts 125°
2026-05-06 13:26 39.28599 -102.78507 36634 ft 479 kts 124°
2026-05-06 13:26 39.27056 -102.74698 36950 ft 480 kts 124°
2026-05-06 13:27 39.25525 -102.70859 37258 ft 480 kts 124°
2026-05-06 13:27 39.24030 -102.67073 37561 ft 481 kts 124°
2026-05-06 13:27 39.22497 -102.63176 37877 ft 481 kts 124°
2026-05-06 13:27 39.20999 -102.59369 38168 ft 482 kts 124°
2026-05-06 13:28 39.19479 -102.55515 38386 ft 484 kts 124°
2026-05-06 13:28 39.17947 -102.51641 38568 ft 487 kts 124°
2026-05-06 13:28 39.16402 -102.47739 38759 ft 489 kts 124°
2026-05-06 13:28 39.14857 -102.43840 38967 ft 489 kts 124°
2026-05-06 13:29 39.13305 -102.39931 39137 ft 490 kts 125°
2026-05-06 13:29 39.10153 -102.32071 39148 ft 495 kts 125°
2026-05-06 13:30 39.07004 -102.24235 39137 ft 489 kts 126°
2026-05-06 13:30 39.03884 -102.16487 39163 ft 487 kts 126°
2026-05-06 13:31 39.00770 -102.08774 39161 ft 485 kts 126°
2026-05-06 13:31 38.97654 -102.01078 39165 ft 486 kts 126°
2026-05-06 13:32 38.94528 -101.93382 39150 ft 486 kts 126°
2026-05-06 13:32 38.91390 -101.85664 39145 ft 488 kts 126°
2026-05-06 13:33 38.88240 -101.77932 39157 ft 490 kts 126°
2026-05-06 13:33 38.85078 -101.70173 39157 ft 493 kts 124°
2026-05-06 13:34 38.82662 -101.61856 39155 ft 506 kts 114°
2026-05-06 13:34 38.80661 -101.53178 39156 ft 508 kts 113°
2026-05-06 13:35 38.78634 -101.44495 39127 ft 508 kts 115°
2026-05-06 13:35 38.76519 -101.35855 39152 ft 507 kts 116°
2026-05-06 13:36 38.74355 -101.27256 39166 ft 508 kts 116°
2026-05-06 13:36 38.72174 -101.18643 39169 ft 509 kts 116°
2026-05-06 13:37 38.70001 -101.10064 39167 ft 509 kts 116°
2026-05-06 13:37 38.67814 -101.01441 39178 ft 510 kts 116°
2026-05-06 13:38 38.65620 -100.92819 39193 ft 510 kts 116°
2026-05-06 13:38 38.63418 -100.84198 39195 ft 510 kts 116°
2026-05-06 13:39 38.61212 -100.75585 39156 ft 509 kts 117°
2026-05-06 13:39 38.58998 -100.66978 39186 ft 510 kts 117°
2026-05-06 13:40 38.56775 -100.58375 39194 ft 510 kts 117°
2026-05-06 13:40 38.54537 -100.49741 39181 ft 512 kts 118°
2026-05-06 13:41 38.52295 -100.41111 39192 ft 513 kts 118°
2026-05-06 13:41 38.50056 -100.32427 39201 ft 514 kts 117°
2026-05-06 13:42 38.47786 -100.23772 39190 ft 515 kts 118°
2026-05-06 13:42 38.45511 -100.15166 39171 ft 516 kts 118°
2026-05-06 13:43 38.43222 -100.06495 39174 ft 515 kts 119°
2026-05-06 13:43 38.40929 -99.97823 39177 ft 515 kts 119°
2026-05-06 13:44 38.38630 -99.89159 39185 ft 515 kts 119°
2026-05-06 13:44 38.36328 -99.80513 39172 ft 516 kts 119°
2026-05-06 13:45 38.34014 -99.71850 39190 ft 516 kts 119°
2026-05-06 13:45 38.30523 -99.58840 39176 ft 518 kts 119°
2026-05-06 13:46 38.28197 -99.50204 39176 ft 518 kts 119°
2026-05-06 13:46 38.25856 -99.41540 39149 ft 518 kts 120°
2026-05-06 13:47 38.23505 -99.32870 39173 ft 518 kts 120°
2026-05-06 13:47 38.21146 -99.24202 39187 ft 519 kts 120°
2026-05-06 13:48 38.18778 -99.15534 39190 ft 519 kts 120°
2026-05-06 13:48 38.16401 -99.06858 39175 ft 520 kts 120°
2026-05-06 13:49 38.14013 -98.98168 39184 ft 521 kts 120°
2026-05-06 13:49 38.11618 -98.89481 39181 ft 521 kts 120°
2026-05-06 13:50 38.09211 -98.80784 39172 ft 522 kts 120°
2026-05-06 13:50 38.06801 -98.72102 39173 ft 522 kts 120°
2026-05-06 13:51 38.04384 -98.63423 39157 ft 522 kts 121°
2026-05-06 13:51 38.01956 -98.54737 39151 ft 522 kts 121°
2026-05-06 13:52 37.99522 -98.46054 39144 ft 523 kts 121°
2026-05-06 13:52 37.97080 -98.37372 39149 ft 522 kts 121°
2026-05-06 13:53 37.94630 -98.28692 39127 ft 522 kts 121°
2026-05-06 13:53 37.92177 -98.20025 39139 ft 522 kts 121°
2026-05-06 13:54 37.89739 -98.11441 39110 ft 522 kts 122°
2026-05-06 13:54 37.87279 -98.02807 39128 ft 521 kts 122°
2026-05-06 13:55 37.84807 -97.94169 39118 ft 521 kts 122°
2026-05-06 13:55 37.82335 -97.85545 39136 ft 522 kts 122°
2026-05-06 13:56 37.79850 -97.76909 39140 ft 522 kts 122°
2026-05-06 13:56 37.77356 -97.68265 39136 ft 523 kts 122°
2026-05-06 13:57 37.74856 -97.59625 39146 ft 523 kts 122°
2026-05-06 13:57 37.72668 -97.50758 39153 ft 532 kts 116°
2026-05-06 13:58 37.71106 -97.43227 39125 ft 534 kts 115°
2026-05-06 13:58 37.69244 -97.34151 39159 ft 533 kts 116°
2026-05-06 13:59 37.67331 -97.25113 39160 ft 533 kts 116°
2026-05-06 13:59 37.65374 -97.16091 39161 ft 533 kts 116°
2026-05-06 14:00 37.63395 -97.07063 39152 ft 533 kts 116°
2026-05-06 14:00 37.61417 -96.98062 39156 ft 532 kts 116°
2026-05-06 14:01 37.59438 -96.89071 39157 ft 532 kts 117°
2026-05-06 14:01 37.57454 -96.80092 39142 ft 531 kts 116°
2026-05-06 14:02 37.55461 -96.71117 39144 ft 531 kts 117°
2026-05-06 14:02 37.53464 -96.62154 39144 ft 531 kts 117°
2026-05-06 14:03 37.51475 -96.53258 39126 ft 531 kts 117°
2026-05-06 14:03 37.49465 -96.44305 39130 ft 532 kts 117°
2026-05-06 14:04 37.47442 -96.35335 39136 ft 533 kts 117°
2026-05-06 14:04 37.45409 -96.26352 39142 ft 534 kts 117°
2026-05-06 14:05 37.43362 -96.17346 39140 ft 536 kts 117°
2026-05-06 14:05 37.41306 -96.08323 39116 ft 536 kts 117°
2026-05-06 14:06 37.39245 -95.99310 39127 ft 535 kts 117°
2026-05-06 14:06 37.37178 -95.90316 39128 ft 536 kts 117°
2026-05-06 14:07 37.35099 -95.81307 39130 ft 537 kts 117°
2026-05-06 14:07 37.33027 -95.72358 39086 ft 536 kts 117°
2026-05-06 14:08 37.30942 -95.63378 39111 ft 534 kts 117°
2026-05-06 14:08 37.28852 -95.54429 39145 ft 535 kts 117°
2026-05-06 14:09 37.26743 -95.45441 39141 ft 537 kts 117°
2026-05-06 14:09 37.24632 -95.36453 39125 ft 536 kts 117°
2026-05-06 14:10 37.22519 -95.27490 39114 ft 535 kts 117°
2026-05-06 14:10 37.20405 -95.18560 39121 ft 533 kts 117°
2026-05-06 14:11 37.18286 -95.09649 39118 ft 532 kts 117°
2026-05-06 14:11 37.16163 -95.00759 39124 ft 532 kts 117°
2026-05-06 14:12 37.14033 -94.91872 39115 ft 533 kts 117°
2026-05-06 14:12 37.11895 -94.82978 39108 ft 532 kts 117°
2026-05-06 14:13 37.09768 -94.74160 39120 ft 532 kts 117°
2026-05-06 14:13 37.07616 -94.65279 39132 ft 533 kts 118°
2026-05-06 14:14 37.05453 -94.56384 39119 ft 535 kts 117°
2026-05-06 14:14 37.03278 -94.47468 39131 ft 535 kts 117°
2026-05-06 14:15 37.01095 -94.38549 39129 ft 535 kts 117°
2026-05-06 14:15 36.98906 -94.29637 39129 ft 536 kts 118°
2026-05-06 14:16 36.96708 -94.20724 39125 ft 536 kts 118°
2026-05-06 14:16 36.94513 -94.11878 39104 ft 537 kts 118°
2026-05-06 14:17 36.92292 -94.02944 39044 ft 537 kts 117°
2026-05-06 14:17 36.90083 -93.94044 39104 ft 534 kts 117°
2026-05-06 14:18 36.87871 -93.85189 39106 ft 533 kts 117°
2026-05-06 14:18 36.85656 -93.76372 39107 ft 532 kts 117°
2026-05-06 14:19 36.83436 -93.67565 39106 ft 531 kts 117°
2026-05-06 14:19 36.81210 -93.58756 39096 ft 531 kts 117°
2026-05-06 14:20 36.78980 -93.49969 39088 ft 531 kts 117°
2026-05-06 14:20 36.76744 -93.41194 39104 ft 531 kts 117°
2026-05-06 14:21 36.74500 -93.32412 39088 ft 532 kts 117°
2026-05-06 14:21 36.72245 -93.23618 39094 ft 532 kts 118°
2026-05-06 14:22 36.69986 -93.14833 39048 ft 532 kts 117°
2026-05-06 14:22 36.67725 -93.06068 39091 ft 531 kts 118°
2026-05-06 14:23 36.65471 -92.97366 39097 ft 531 kts 118°
2026-05-06 14:23 36.63200 -92.88630 39096 ft 531 kts 118°
2026-05-06 14:24 36.60920 -92.79888 39096 ft 530 kts 118°
2026-05-06 14:24 36.58633 -92.71156 39092 ft 530 kts 118°
2026-05-06 14:25 36.56343 -92.62427 39080 ft 529 kts 118°
2026-05-06 14:25 36.54051 -92.53723 39089 ft 530 kts 118°
2026-05-06 14:26 36.51748 -92.45014 39100 ft 530 kts 118°
2026-05-06 14:26 36.49437 -92.36300 39094 ft 531 kts 118°
2026-05-06 14:27 36.47137 -92.27655 39043 ft 530 kts 118°
2026-05-06 14:27 36.44821 -92.18973 39080 ft 529 kts 118°
2026-05-06 14:28 36.42499 -92.10306 39082 ft 529 kts 118°
2026-05-06 14:28 36.40170 -92.01639 39071 ft 529 kts 118°
2026-05-06 14:29 36.37837 -91.92987 39075 ft 528 kts 118°
2026-05-06 14:29 36.35497 -91.84337 39071 ft 528 kts 118°
2026-05-06 14:30 36.33157 -91.75711 39074 ft 528 kts 118°
2026-05-06 14:30 36.30808 -91.67084 39073 ft 528 kts 118°
2026-05-06 14:31 36.28464 -91.58505 39069 ft 528 kts 118°
2026-05-06 14:31 36.26097 -91.49866 39055 ft 529 kts 118°
2026-05-06 14:32 36.23728 -91.41247 39028 ft 528 kts 118°
2026-05-06 14:32 36.21352 -91.32630 39059 ft 528 kts 118°
2026-05-06 14:33 36.18967 -91.24013 39067 ft 529 kts 118°
2026-05-06 14:33 36.16589 -91.15444 39059 ft 530 kts 118°
2026-05-06 14:34 36.14186 -91.06809 39052 ft 531 kts 118°
2026-05-06 14:34 36.11777 -90.98177 39057 ft 531 kts 118°
2026-05-06 14:35 36.09699 -90.89333 39091 ft 540 kts 110°
2026-05-06 14:35 36.08104 -90.80247 39084 ft 542 kts 109°
2026-05-06 14:36 36.06544 -90.71130 39059 ft 540 kts 109°
2026-05-06 14:36 36.04925 -90.62105 39055 ft 537 kts 110°
2026-05-06 14:37 36.03262 -90.53117 39032 ft 536 kts 110°
2026-05-06 14:37 36.01590 -90.44152 39028 ft 535 kts 110°
2026-05-06 14:38 35.99918 -90.35208 39023 ft 534 kts 110°
2026-05-06 14:38 35.98241 -90.26253 39031 ft 535 kts 110°
2026-05-06 14:39 35.96569 -90.17363 39032 ft 536 kts 110°
2026-05-06 14:39 35.94875 -90.08392 39026 ft 537 kts 110°
2026-05-06 14:40 35.93172 -89.99411 39028 ft 538 kts 110°
2026-05-06 14:40 35.91458 -89.90415 39028 ft 538 kts 110°
2026-05-06 14:41 35.89737 -89.81418 39028 ft 539 kts 110°
2026-05-06 14:41 35.88872 -89.76913 38829 ft 542 kts 110°
2026-05-06 14:41 35.87997 -89.72374 38267 ft 543 kts 110°
2026-05-06 14:42 35.87124 -89.67844 37688 ft 542 kts 110°
2026-05-06 14:42 35.86254 -89.63333 37120 ft 540 kts 110°
2026-05-06 14:42 35.85387 -89.58843 36535 ft 539 kts 110°
2026-05-06 14:42 35.84527 -89.54409 35971 ft 538 kts 110°
2026-05-06 14:43 35.83654 -89.49919 35351 ft 538 kts 110°
2026-05-06 14:43 35.82784 -89.45455 34899 ft 535 kts 110°
2026-05-06 14:43 35.81917 -89.41009 34426 ft 532 kts 110°
2026-05-06 14:43 35.81051 -89.36579 33932 ft 530 kts 110°
2026-05-06 14:44 35.80188 -89.32175 33417 ft 527 kts 110°
2026-05-06 14:44 35.79328 -89.27797 32931 ft 523 kts 110°
2026-05-06 14:44 35.78475 -89.23462 32440 ft 519 kts 110°
2026-05-06 14:45 35.76785 -89.14901 31567 ft 510 kts 110°
2026-05-06 14:45 35.75948 -89.10677 31141 ft 506 kts 110°
2026-05-06 14:45 35.75397 -89.07900 30847 ft 503 kts 110°
2026-05-06 14:45 35.74290 -89.02338 30281 ft 497 kts 110°
2026-05-06 14:46 35.73746 -88.99609 30005 ft 494 kts 110°
2026-05-06 14:46 35.72930 -88.95520 29524 ft 489 kts 110°
2026-05-06 14:46 35.72120 -88.91465 29051 ft 484 kts 110°
2026-05-06 14:46 35.71320 -88.87464 28614 ft 479 kts 110°
2026-05-06 14:47 35.70528 -88.83499 28157 ft 474 kts 108°
2026-05-06 14:47 35.70139 -88.79472 27760 ft 476 kts 89°
2026-05-06 14:47 35.70474 -88.75450 27535 ft 468 kts 84°
2026-05-06 14:47 35.70875 -88.71494 27140 ft 463 kts 84°
2026-05-06 14:48 35.71272 -88.67574 26724 ft 460 kts 84°
2026-05-06 14:48 35.71652 -88.63676 26296 ft 458 kts 84°
2026-05-06 14:48 35.72012 -88.59796 25840 ft 456 kts 85°
2026-05-06 14:48 35.72354 -88.55976 25400 ft 454 kts 85°
2026-05-06 14:49 35.72691 -88.52109 24960 ft 453 kts 85°
2026-05-06 14:49 35.73021 -88.48261 24524 ft 451 kts 85°
2026-05-06 14:49 35.73352 -88.44426 24078 ft 450 kts 85°
2026-05-06 14:49 35.73682 -88.40597 23643 ft 449 kts 85°
2026-05-06 14:50 35.74010 -88.36781 23132 ft 448 kts 85°
2026-05-06 14:50 35.74337 -88.32978 22711 ft 445 kts 85°
2026-05-06 14:50 35.74657 -88.29226 22503 ft 435 kts 85°
2026-05-06 14:50 35.74973 -88.25515 21857 ft 434 kts 85°
2026-05-06 14:51 35.75283 -88.21856 21454 ft 426 kts 85°
2026-05-06 14:51 35.75589 -88.18232 21040 ft 424 kts 85°
2026-05-06 14:51 35.75893 -88.14623 20551 ft 424 kts 85°
2026-05-06 14:51 35.76197 -88.11005 20005 ft 425 kts 85°
2026-05-06 14:52 35.76502 -88.07378 19533 ft 425 kts 85°
2026-05-06 14:52 35.76805 -88.03762 19022 ft 426 kts 85°
2026-05-06 14:52 35.77108 -88.00127 18528 ft 426 kts 85°
2026-05-06 14:52 35.77406 -87.96538 17994 ft 419 kts 85°
2026-05-06 14:53 35.77700 -87.92991 17476 ft 410 kts 85°
2026-05-06 14:53 35.77980 -87.89590 17005 ft 400 kts 85°
2026-05-06 14:53 35.78257 -87.86226 16549 ft 391 kts 85°
2026-05-06 14:53 35.78527 -87.82930 16113 ft 384 kts 85°
2026-05-06 14:54 35.78792 -87.79680 15682 ft 378 kts 85°
2026-05-06 14:54 35.79052 -87.76486 15254 ft 372 kts 85°
2026-05-06 14:54 35.79306 -87.73339 14834 ft 366 kts 85°
2026-05-06 14:54 35.79556 -87.70242 14414 ft 362 kts 84°
2026-05-06 14:55 35.79804 -87.67166 14012 ft 359 kts 84°
2026-05-06 14:55 35.80050 -87.64110 13553 ft 356 kts 84°
2026-05-06 14:55 35.80291 -87.61096 13116 ft 351 kts 84°
2026-05-06 14:55 35.80528 -87.58133 12698 ft 345 kts 84°
2026-05-06 14:56 35.80760 -87.55212 12293 ft 341 kts 84°
2026-05-06 14:56 35.81090 -87.52337 11899 ft 336 kts 72°
2026-05-06 14:56 35.81976 -87.49711 11579 ft 328 kts 62°
2026-05-06 14:56 35.82947 -87.47186 11243 ft 325 kts 62°
2026-05-06 14:57 35.83897 -87.44711 10915 ft 322 kts 62°
2026-05-06 14:57 35.84841 -87.42211 10578 ft 320 kts 63°
2026-05-06 14:57 35.85767 -87.39721 10256 ft 318 kts 63°
2026-05-06 14:57 35.86683 -87.37239 9938 ft 318 kts 63°
2026-05-06 14:58 35.87592 -87.34768 9617 ft 316 kts 63°
2026-05-06 14:58 35.88499 -87.32299 9216 ft 316 kts 63°
2026-05-06 14:58 35.89402 -87.29838 8880 ft 313 kts 64°
2026-05-06 14:58 35.90295 -87.27404 8550 ft 311 kts 64°
2026-05-06 14:59 35.91184 -87.24979 8229 ft 309 kts 64°
2026-05-06 14:59 35.92062 -87.22581 7909 ft 307 kts 64°
2026-05-06 14:59 35.92937 -87.20193 7601 ft 305 kts 64°
2026-05-06 14:59 35.93810 -87.17821 7287 ft 303 kts 65°
2026-05-06 15:00 35.94675 -87.15452 7017 ft 301 kts 65°
2026-05-06 15:00 35.95502 -87.13119 6642 ft 298 kts 70°
2026-05-06 15:00 35.95914 -87.10606 6337 ft 294 kts 84°
2026-05-06 15:00 35.96145 -87.08141 6014 ft 293 kts 86°
2026-05-06 15:01 35.96381 -87.05646 5700 ft 291 kts 84°
2026-05-06 15:01 35.96616 -87.03182 5384 ft 288 kts 85°
2026-05-06 15:01 35.96856 -87.00735 5085 ft 286 kts 84°
2026-05-06 15:01 35.97104 -86.98290 4793 ft 286 kts 84°
2026-05-06 15:02 35.97356 -86.95858 4476 ft 285 kts 84°
2026-05-06 15:02 35.97609 -86.93437 4172 ft 284 kts 84°
2026-05-06 15:02 35.97857 -86.91056 4038 ft 271 kts 84°
2026-05-06 15:02 35.98093 -86.88825 3994 ft 253 kts 84°
2026-05-06 15:03 35.98310 -86.86758 3987 ft 233 kts 84°
2026-05-06 15:03 35.98509 -86.84855 4027 ft 214 kts 85°
2026-05-06 15:03 35.98659 -86.83068 4036 ft 205 kts 85°
2026-05-06 15:03 35.98599 -86.81334 3843 ft 201 kts 121°
2026-05-06 15:04 35.98019 -86.79816 3704 ft 195 kts 117°
2026-05-06 15:04 35.97537 -86.78245 3530 ft 195 kts 114°
2026-05-06 15:04 35.97527 -86.76591 3483 ft 200 kts 73°
2026-05-06 15:04 35.98007 -86.74921 3245 ft 208 kts 71°
2026-05-06 15:05 35.98195 -86.74373 3171 ft 206 kts 64°
2026-05-06 15:06 35.98321 -86.74104 3121 ft 205 kts 56°
2026-05-06 15:06 35.99404 -86.73108 2836 ft 193 kts 18°
2026-05-06 15:07 36.00681 -86.72589 2611 ft 188 kts 12°
2026-05-06 15:07 36.00905 -86.72517 2571 ft 186 kts 12°
2026-05-06 15:07 36.01301 -86.72387 2491 ft 185 kts 12°
2026-05-06 15:07 36.02504 -86.71948 2254 ft 172 kts 15°
2026-05-06 15:08 36.03591 -86.71512 2002 ft 154 kts 14°
2026-05-06 15:08 36.04536 -86.71132 1866 ft 134 kts 15°
2026-05-06 15:08 36.05377 -86.70793 1667 ft 121 kts 14°
2026-05-06 15:08 36.06176 -86.70474 1493 ft 123 kts 15°
2026-05-06 15:09 36.06989 -86.70147 1317 ft 122 kts 15°
2026-05-06 15:09 36.07784 -86.69826 1158 ft 119 kts 15°
2026-05-06 15:09 36.08590 -86.69493 999 ft 123 kts 17°
2026-05-06 15:09 36.09392 -86.69176 840 ft 119 kts 17°
2026-05-06 15:10 36.10153 -86.68868 680 ft 111 kts 15°
2026-05-06 15:10 36.10855 -86.68585 590 ft 97 kts 19°
2026-05-06 15:10 36.11369 -86.68384 584 ft 61 kts 18°
2026-05-06 15:10 36.11712 -86.68247 577 ft 43 kts 19°
2026-05-06 15:11 36.11946 -86.68152 572 ft 25 kts 28°
2026-05-06 15:11 36.12006 -86.68055 575 ft 4 kts 63°
2026-05-06 15:11 36.12015 -86.68032 573 ft 3 kts 62°
2026-05-06 15:11 36.12024 -86.68011 571 ft 3 kts 64°
2026-05-06 15:12 36.12028 -86.68001 571 ft 0 kts 64°
2026-05-06 15:12 36.12043 -86.67965 568 ft 9 kts 63°
2026-05-06 15:12 36.12078 -86.67881 573 ft 13 kts 62°
2026-05-06 15:13 36.12143 -86.67798 571 ft 14 kts 22°
2026-05-06 15:13 36.12210 -86.67720 573 ft 14 kts 64°
2026-05-06 15:13 36.12258 -86.67622 572 ft 13 kts 48°
2026-05-06 15:13 36.12324 -86.67545 572 ft 13 kts 43°
2026-05-06 15:14 36.12391 -86.67469 573 ft 14 kts 41°
2026-05-06 15:14 36.12451 -86.67410 570 ft 10 kts 37°
2026-05-06 15:14 36.12501 -86.67355 569 ft 10 kts 44°
2026-05-06 15:14 36.12553 -86.67294 570 ft 11 kts 43°
2026-05-06 15:15 36.12606 -86.67234 571 ft 10 kts 43°
2026-05-06 15:15 36.12658 -86.67174 567 ft 10 kts 42°
2026-05-06 15:15 36.12708 -86.67114 568 ft 4 kts 53°
2026-05-06 15:15 36.12700 -86.67078 566 ft 5 kts 116°
2026-05-06 15:16 36.12671 -86.67031 567 ft 8 kts 129°
2026-05-06 15:16 36.12640 -86.66987 567 ft 7 kts 132°
2026-05-06 15:16 36.12607 -86.66926 569 ft 9 kts 108°
2026-05-06 15:16 36.12624 -86.66848 571 ft 10 kts 45°
2026-05-06 15:17 36.12679 -86.66787 567 ft 11 kts 40°
2026-05-06 15:17 36.12748 -86.66721 567 ft 13 kts 27°
2026-05-06 15:17 36.12841 -86.66735 566 ft 15 kts 321°
2026-05-06 15:17 36.12905 -86.66820 567 ft 11 kts 311°
2026-05-06 15:18 36.12912 -86.66884 568 ft 8 kts 244°
2026-05-06 15:18 36.12879 -86.66924 568 ft 2 kts 222°
2026-05-06 15:18 36.12866 -86.66937 570 ft 2 kts 218°
2026-05-06 15:18 36.12865 -86.66937 571 ft 0 kts 218°